CW6761 Aldeanueva de Vera ES current weather conditions

sailwx.info

Wind from 164

Air temperature 6.1° C
Dewpoint 4.9° C

Last reported at 2020-Jan-24 12:01 UTC.
Time now 2020-Jan-24 12:18 UTC

Location: N 40°08' W 005°42'.
View on Google Maps.

See reports from other nearby stations

  
Tides and Currents Weather Stations Pressure Air Temp Water Temp Dewpoint Dewpoint Depression Visibility Wind Speed Wind Dir Waves Ship Positions
date/time (UTC)wind fromknots sea level pressurealtimeterstation pressurevisibilityair tempwater tempwave heightnotes
2020-Jan-24 12:01 164 6.1
2020-Jan-24 11:51 131 0 6.1
2020-Jan-24 11:46 159 0 6.1
2020-Jan-24 11:41 174 0 6.1
2020-Jan-24 11:36 163 0 6.1
2020-Jan-24 11:31 104 0 6.1
2020-Jan-24 11:26 153 6.1
2020-Jan-24 11:21 158 6.1
2020-Jan-24 11:16 161 6.1
2020-Jan-24 11:11 178 6.7
2020-Jan-24 11:06 133 6.7
2020-Jan-24 11:01 131 6.7
2020-Jan-24 10:56 137 6.7
2020-Jan-24 10:51 113 6.7
2020-Jan-24 10:46 107 6.7
2020-Jan-24 10:41 106 6.7
2020-Jan-24 10:36 106 6.7
2020-Jan-24 10:31 6.7
2020-Jan-24 10:26
2020-Jan-24 10:21
2020-Jan-24 10:16
2020-Jan-24 10:11 6.1
2020-Jan-24 10:06 046 6.1
2020-Jan-24 10:01 028 6.1
2020-Jan-24 09:56 028 6.1
2020-Jan-24 09:51 028 5.6
2020-Jan-24 09:46 028 5.6
2020-Jan-24 09:41 027 5.6
2020-Jan-24 09:36 027 5.6
2020-Jan-24 09:31 027 5.6
2020-Jan-24 09:26 027 5.6
2020-Jan-24 09:21 028 5.6
2020-Jan-24 09:16 028 5.6
2020-Jan-24 09:11 028 5.0
2020-Jan-24 09:06 027 5.0
2020-Jan-24 09:01 027 5.0
2020-Jan-24 08:56 027 5.0
2020-Jan-24 08:51 027 5.0
2020-Jan-24 08:46 027 5.0
2020-Jan-24 08:41 027 5.0
2020-Jan-24 08:36 027 5.0
2020-Jan-24 08:31 027 5.0
2020-Jan-24 08:26 027 5.0
2020-Jan-24 08:21 027 5.0
2020-Jan-24 08:16 027 5.0
2020-Jan-24 08:11 027 5.0
2020-Jan-24 08:06 027 5.0
2020-Jan-24 08:01 027 5.0
2020-Jan-24 07:56 030 5.0
2020-Jan-24 07:51 032 4.4
2020-Jan-24 07:46 355 4.4
2020-Jan-24 07:41 020 4.4
2020-Jan-24 07:36 351 4.4
2020-Jan-24 07:31 355 4.4
2020-Jan-24 07:26 355 4.4
2020-Jan-24 07:21 355 4.4
2020-Jan-24 07:16 355 4.4
2020-Jan-24 07:11 351 4.4
2020-Jan-24 07:06 360 4.4
2020-Jan-24 07:01 360 4.4
2020-Jan-24 06:56 360 4.4
2020-Jan-24 06:51 355 4.4
2020-Jan-24 06:46 355 4.4
2020-Jan-24 06:41 355 4.4
2020-Jan-24 06:36 355 4.4
2020-Jan-24 06:31 355 4.4
2020-Jan-24 06:26 355 4.4
2020-Jan-24 06:21 355 4.4
2020-Jan-24 06:16 355 3.9
2020-Jan-24 06:11 355 3.9
2020-Jan-24 06:06 355 4.4
2020-Jan-24 06:01 355 4.4
2020-Jan-24 05:56 355 4.4
2020-Jan-24 05:51 351 4.4
2020-Jan-24 05:46 350 4.4
2020-Jan-24 05:41 350 4.4
2020-Jan-24 05:36 355 4.4
2020-Jan-24 05:31 351 0 4.4
2020-Jan-24 05:26 342 0 4.4
2020-Jan-24 05:21 342 4.4
2020-Jan-24 05:16 336 0 4.4
2020-Jan-24 05:11 335 0 3.9
2020-Jan-24 05:06 342 0 3.9
2020-Jan-24 05:01 355 0 3.9
2020-Jan-24 04:56 360 0 3.9
2020-Jan-24 04:51 360 0 3.9
2020-Jan-24 04:46 351 0 3.9
2020-Jan-24 04:41 351 0 3.9
2020-Jan-24 04:36 340 3.9
2020-Jan-24 04:31 344 0 3.9
2020-Jan-24 04:26 339 0 3.9
2020-Jan-24 04:21 329 1 3.9
2020-Jan-24 04:16 338 1 3.9
2020-Jan-24 04:11 341 1 3.9
2020-Jan-24 04:06 335 1 3.9
2020-Jan-24 04:01 005 1 3.9
2020-Jan-24 03:56 348 1 4.4
2020-Jan-24 03:51 360 0 4.4
2020-Jan-24 03:46 005 0 4.4
2020-Jan-24 03:41 024 0 4.4
2020-Jan-24 03:36 014 0 4.4
2020-Jan-24 03:31 035 1 4.4
2020-Jan-24 03:26 022 1 5.0
2020-Jan-24 03:21 030 0 5.0
2020-Jan-24 03:16 034 5.0
2020-Jan-24 03:11 032 5.0
2020-Jan-24 03:06 022 5.0
2020-Jan-24 03:01 019 5.0
2020-Jan-24 02:56 019 5.0
2020-Jan-24 02:51 019 5.0
2020-Jan-24 02:46 019 5.0
2020-Jan-24 02:41 019 5.0
2020-Jan-24 02:36 019 5.0
2020-Jan-24 02:31 019 5.0
2020-Jan-24 02:26 020 5.0
2020-Jan-24 02:21 021 5.0
2020-Jan-24 02:16 022 5.0
2020-Jan-24 02:11 022 5.0
2020-Jan-24 02:06 022 5.0
2020-Jan-24 02:01 021 5.0
2020-Jan-24 01:56 022 5.0
2020-Jan-24 01:51 021 5.0
2020-Jan-24 01:46 030 5.0
2020-Jan-24 01:41 024 5.0
2020-Jan-24 01:36 344 5.0
2020-Jan-24 01:31 348 5.0
2020-Jan-24 01:26 044 0 5.0
2020-Jan-24 01:21 033 5.6
2020-Jan-24 01:16 011 5.6
2020-Jan-24 01:11 011 0 5.6
2020-Jan-24 01:06 009 5.6
2020-Jan-24 01:01 038 5.6
2020-Jan-24 00:56 013 5.6
2020-Jan-24 00:51 157 5.6
2020-Jan-24 00:46 159 6.1
2020-Jan-24 00:41 159 6.1
2020-Jan-24 00:36 159 6.1
2020-Jan-24 00:31 159 6.1
2020-Jan-24 00:26 159 6.1
2020-Jan-24 00:22 159 6.1
2020-Jan-24 00:16 157 6.1
2020-Jan-24 00:11 156 6.1
2020-Jan-24 00:06 098 6.1
2020-Jan-24 00:01 093 6.1
2020-Jan-23 23:56 150 6.1
2020-Jan-23 23:51 150 6.1
2020-Jan-23 23:46 150 6.1
2020-Jan-23 23:41 132 6.1
2020-Jan-23 23:36 133 6.1
2020-Jan-23 23:31 105 0 6.1
2020-Jan-23 23:26 157 0 6.1
2020-Jan-23 23:21 115 6.1
2020-Jan-23 23:16 128 6.1
2020-Jan-23 23:11 131 6.1
2020-Jan-23 23:06 139 6.1
2020-Jan-23 23:01 094 6.1
2020-Jan-23 22:56 143 6.7
2020-Jan-23 22:51 142 6.7
2020-Jan-23 22:46 151 6.7
2020-Jan-23 22:41 150 6.7
2020-Jan-23 22:36 133 6.7
2020-Jan-23 22:31 113 6.7
2020-Jan-23 22:26 111 6.7
2020-Jan-23 22:21 101 6.7
2020-Jan-23 22:16 096 6.7
2020-Jan-23 22:11 097 6.7
2020-Jan-23 22:06 051 6.7
2020-Jan-23 22:01 042 6.1
2020-Jan-23 21:56 172 6.1
2020-Jan-23 21:51 172 6.1
2020-Jan-23 21:46 175 6.1
2020-Jan-23 21:41 212 6.1
2020-Jan-23 21:36 213 6.1
2020-Jan-23 21:31 213 6.1
2020-Jan-23 21:26 213 6.1
2020-Jan-23 21:21 213 6.1
2020-Jan-23 21:16 213 6.1
2020-Jan-23 21:11 207 6.1
2020-Jan-23 21:06 202 6.1
2020-Jan-23 21:01 201 6.1
2020-Jan-23 20:56 202 6.1
2020-Jan-23 20:51 205 6.1
2020-Jan-23 20:46 205 6.1
2020-Jan-23 20:41 202 6.1
2020-Jan-23 20:36 202 6.1
2020-Jan-23 20:31 202 6.1
2020-Jan-23 20:26 217 6.1
2020-Jan-23 20:21 224 6.7
2020-Jan-23 20:16 224 6.7
2020-Jan-23 20:11 225 6.7
2020-Jan-23 20:06 221 6.7
2020-Jan-23 20:01 105 6.7
2020-Jan-23 19:56 104 6.7
2020-Jan-23 19:51 104 6.7
2020-Jan-23 19:46 090 6.7
2020-Jan-23 19:41 086 6.7
2020-Jan-23 19:36 056 6.7
2020-Jan-23 19:31 056 6.7
2020-Jan-23 19:26 060 6.7
2020-Jan-23 19:21 092 6.7
2020-Jan-23 19:16 080 6.7
2020-Jan-23 19:11 072 6.7
2020-Jan-23 19:06 103 6.7
2020-Jan-23 19:01 105 6.7
2020-Jan-23 18:56 084 6.7
2020-Jan-23 18:51 077 6.7
2020-Jan-23 18:46 076 6.7
2020-Jan-23 18:41 116 6.7
2020-Jan-23 18:36 116 6.7
2020-Jan-23 18:31 116 6.7
2020-Jan-23 18:26 105 6.7
2020-Jan-23 18:21 091 6.7
2020-Jan-23 18:16 093 6.7
2020-Jan-23 18:11 080 6.7
2020-Jan-23 18:06 084 6.7
2020-Jan-23 18:01 091 6.7
2020-Jan-23 17:56 081 6.7
2020-Jan-23 17:51 132 6.7
2020-Jan-23 17:46 103 6.7
2020-Jan-23 17:41 070 6.1
2020-Jan-23 17:36 059 6.1
2020-Jan-23 17:31 057 6.1
2020-Jan-23 17:26 062 6.1
2020-Jan-23 17:21 121 6.1
2020-Jan-23 17:16 121 6.1
2020-Jan-23 17:11 109 6.1
2020-Jan-23 17:06 109 6.1
2020-Jan-23 17:01 109 6.1
2020-Jan-23 16:56 105 6.1
2020-Jan-23 16:51 111 6.1
2020-Jan-23 16:46 113 6.1
2020-Jan-23 16:41 105 6.1
2020-Jan-23 16:36 058 6.1
2020-Jan-23 16:31 057 6.1
2020-Jan-23 16:26 053 5.6
2020-Jan-23 16:21 348 5.6
2020-Jan-23 16:16 294 5.6
2020-Jan-23 16:11 241 5.6
2020-Jan-23 16:06 241 5.6
2020-Jan-23 16:01 241 5.6
2020-Jan-23 15:56 241 5.6
2020-Jan-23 15:51 241 5.6
2020-Jan-23 15:46 241 5.6
2020-Jan-23 15:41 241 5.6
2020-Jan-23 15:36 241 5.6
2020-Jan-23 15:31 242 5.6
2020-Jan-23 15:26 243 5.6
2020-Jan-23 15:21 243 5.6
2020-Jan-23 15:16 243 5.6
2020-Jan-23 15:11 243 5.6
2020-Jan-23 15:06 244 5.6
2020-Jan-23 15:01 244 5.6
2020-Jan-23 14:56 182 5.6
2020-Jan-23 14:51 183 5.6
2020-Jan-23 14:46 176 5.6
2020-Jan-23 14:41 176 5.6
2020-Jan-23 14:36 176 5.6
2020-Jan-23 14:31 176 5.6
2020-Jan-23 14:26 176 6.1
2020-Jan-23 14:21 177 6.1
2020-Jan-23 14:16 176 6.1
2020-Jan-23 14:11 176 6.1
2020-Jan-23 14:06 176 6.1
2020-Jan-23 14:01 176 6.1
2020-Jan-23 13:56 173 6.1
2020-Jan-23 13:51 173 6.1
2020-Jan-23 13:46 173 6.1
2020-Jan-23 13:41 168 6.1
2020-Jan-23 13:36 166 6.1
2020-Jan-23 13:31 153 6.1
2020-Jan-23 13:26 136 6.1
2020-Jan-23 13:21 065 6.1
2020-Jan-23 13:16 100 5.6
2020-Jan-23 13:11 100 5.6
2020-Jan-23 13:06 100 5.6
2020-Jan-23 13:01 057 5.6
2020-Jan-23 12:56 289 5.0
2020-Jan-23 12:51 246 5.0
2020-Jan-23 12:46 245 5.0
2020-Jan-23 12:41 245 5.0
2020-Jan-23 12:36 245 5.0
2020-Jan-23 12:31 246 5.0
2020-Jan-23 12:26 245 5.0
2020-Jan-23 12:21 245 5.0
2020-Jan-23 12:16 255 5.0
2020-Jan-23 12:11 255 4.4
2020-Jan-23 12:06 255 4.4
2020-Jan-23 12:01 255 4.4
2020-Jan-23 11:56 256 4.4
2020-Jan-23 11:51 254 4.4
2020-Jan-23 11:46 244 4.4
2020-Jan-23 11:41 244 4.4
2020-Jan-23 11:36 245 4.4
2020-Jan-23 11:31 244 4.4
2020-Jan-23 11:26 246 4.4
2020-Jan-23 11:21 209 4.4
2020-Jan-23 11:16 209 4.4
2020-Jan-23 11:11 209 4.4
2020-Jan-23 11:06 207 4.4
2020-Jan-23 11:01 207 4.4
2020-Jan-23 10:56 207 4.4
2020-Jan-23 10:51 053 4.4
2020-Jan-23 10:46 053 4.4
2020-Jan-23 10:41 053 4.4
2020-Jan-23 10:36 047 4.4
2020-Jan-23 10:31 047 4.4
2020-Jan-23 10:26 048 4.4
2020-Jan-23 10:21 048 4.4
2020-Jan-23 10:16 067 4.4
2020-Jan-23 10:11 096 4.4
2020-Jan-23 10:06 103 4.4
2020-Jan-23 10:01 103 4.4
2020-Jan-23 09:56 103 4.4
2020-Jan-23 09:51 103 4.4
2020-Jan-23 09:46 103 4.4
2020-Jan-23 09:41 140 4.4
2020-Jan-23 09:36 159 4.4
2020-Jan-23 09:31 159 4.4
2020-Jan-23 09:26 159 4.4
2020-Jan-23 09:21 140 4.4
2020-Jan-23 09:16 140 4.4
2020-Jan-23 09:11 040 4.4
2020-Jan-23 09:06 048 4.4
2020-Jan-23 09:01 045 4.4
2020-Jan-23 08:56 038 4.4
2020-Jan-23 08:51 028 4.4
2020-Jan-23 08:46 043 4.4
2020-Jan-23 08:41 042 4.4
2020-Jan-23 08:36 042 4.4
2020-Jan-23 08:31 042 4.4
2020-Jan-23 08:26 042 4.4
2020-Jan-23 08:21 042 4.4
2020-Jan-23 08:16 042 4.4
2020-Jan-23 08:11 035 4.4
2020-Jan-23 08:06 036 4.4
2020-Jan-23 08:01 035 4.4
2020-Jan-23 07:56 035 4.4
2020-Jan-23 07:51 035 4.4
2020-Jan-23 07:46 035 4.4
2020-Jan-23 07:41 069 4.4
2020-Jan-23 07:36 065 4.4
2020-Jan-23 07:31 266 4.4
2020-Jan-23 07:26 049 4.4
2020-Jan-23 07:21 051 4.4
2020-Jan-23 07:16 051 4.4
2020-Jan-23 07:11 051 4.4
2020-Jan-23 07:06 051 4.4
2020-Jan-23 07:01 051 4.4
2020-Jan-23 06:56 050 4.4
2020-Jan-23 06:51 050 4.4
2020-Jan-23 06:46 049 4.4
2020-Jan-23 06:41 183 4.4
2020-Jan-23 06:36 205 4.4
2020-Jan-23 06:31 115 4.4
2020-Jan-23 06:26 103 4.4
2020-Jan-23 06:21 110 4.4
2020-Jan-23 06:16 111 4.4
2020-Jan-23 06:11 111 4.4
2020-Jan-23 06:06 117 4.4
2020-Jan-23 06:01 118 5.0
2020-Jan-23 05:56 117 5.0
2020-Jan-23 05:51 119 5.0
2020-Jan-23 05:46 129 5.0
2020-Jan-23 05:41 129 5.0
2020-Jan-23 05:36 049 5.0
2020-Jan-23 05:31 183 5.0
2020-Jan-23 05:26 183 5.0
2020-Jan-23 05:21 183 5.0
2020-Jan-23 05:16 182 5.0
2020-Jan-23 05:11 128 5.0
2020-Jan-23 05:06 129 5.0
2020-Jan-23 05:01 115 5.0
2020-Jan-23 04:56 084 5.0
2020-Jan-23 04:51 094 5.0
2020-Jan-23 04:46 198 5.0
2020-Jan-23 04:41 213 5.0
2020-Jan-23 04:36 094 5.0
2020-Jan-23 04:31 096 5.0
2020-Jan-23 04:26 086 5.0
2020-Jan-23 04:21 088 5.0
2020-Jan-23 04:16 082 5.0
2020-Jan-23 04:11 050 5.0
2020-Jan-23 04:06 078 5.0
2020-Jan-23 04:01 146 5.0
2020-Jan-23 03:56 145 0 5.0
2020-Jan-23 03:51 112 1 5.0
2020-Jan-23 03:46 155 1 5.0
2020-Jan-23 03:41 030 0 5.0
2020-Jan-23 03:36 095 0 5.0
2020-Jan-23 03:31 095 1 5.0
2020-Jan-23 03:26 145 1 5.0
2020-Jan-23 03:21 103 0 5.0
2020-Jan-23 03:16 101 0 5.0
2020-Jan-23 03:11 059 0 5.0
2020-Jan-23 03:06 059 1 5.0
2020-Jan-23 03:01 049 1 5.0
2020-Jan-23 02:56 113 0 5.0
2020-Jan-23 02:51 117 0 5.0
2020-Jan-23 02:46 130 0 5.0
2020-Jan-23 02:41 128 0 5.0
2020-Jan-23 02:36 128 0 5.0
2020-Jan-23 02:31 120 5.0
2020-Jan-23 02:26 119 5.0
2020-Jan-23 02:21 119 5.0
2020-Jan-23 02:16 119 5.0
2020-Jan-23 02:11 118 5.0
2020-Jan-23 02:06 118 5.0
2020-Jan-23 02:01 118 0 5.0
2020-Jan-23 01:56 118 1 5.0
2020-Jan-23 01:51 132 0 5.0
2020-Jan-23 01:46 132 5.0
2020-Jan-23 01:41 132 5.6
2020-Jan-23 01:36 132 5.6
2020-Jan-23 01:31 132 5.6
2020-Jan-23 01:26 132 1 5.6
2020-Jan-23 01:21 132 1 5.6
2020-Jan-23 01:16 130 0 6.1
2020-Jan-23 01:11 187 1 6.1
2020-Jan-23 01:06 219 1 6.1
2020-Jan-23 01:01 180 1 6.1
2020-Jan-23 00:56 176 1 6.1
2020-Jan-23 00:51 044 6.1
2020-Jan-23 00:46 043 6.1
2020-Jan-23 00:41 043 6.1
2020-Jan-23 00:36 043 0 6.7
2020-Jan-23 00:31 043 1 6.7
2020-Jan-23 00:26 044 1 6.7
2020-Jan-23 00:21 351 0 7.2
2020-Jan-23 00:16 213 1 7.2
2020-Jan-23 00:11 212 1 7.2
2020-Jan-23 00:06 236 2 7.8
2020-Jan-23 00:01 207 3 7.8
2020-Jan-22 23:56 188 2 7.8
2020-Jan-22 23:51 051 1 7.8
2020-Jan-22 23:46 109 1 7.8
2020-Jan-22 23:41 128 1 7.8
2020-Jan-22 23:36 200 2 7.8
2020-Jan-22 23:31 086 2 7.8
2020-Jan-22 23:21 098 2 7.8
2020-Jan-22 23:16 124 2 7.8
2020-Jan-22 23:11 099 2 7.8
2020-Jan-22 23:06 140 2 7.8
2020-Jan-22 23:01 111 2 7.8
2020-Jan-22 22:56 132 1 7.8
2020-Jan-22 22:51 147 0 7.8
2020-Jan-22 22:46 092 2 7.8
2020-Jan-22 22:41 055 2 7.8
2020-Jan-22 22:36 121 2 7.8
2020-Jan-22 22:31 132 3 7.8
2020-Jan-22 22:26 088 2 7.8
2020-Jan-22 22:21 131 3 7.8
2020-Jan-22 22:16 046 3 7.8
2020-Jan-22 22:11 137 2 7.8
2020-Jan-22 22:06 099 3 7.8
2020-Jan-22 22:01 117 3 7.8
2020-Jan-22 21:56 104 2 7.8
2020-Jan-22 21:51 039 1 7.8
2020-Jan-22 21:46 128 1 7.8
2020-Jan-22 21:41 108 1 7.8
2020-Jan-22 21:36 011 1 7.8
2020-Jan-22 21:31 121 2 7.8
2020-Jan-22 21:26 145 1 7.8
2020-Jan-22 21:21 080 1 7.8
2020-Jan-22 21:16 132 2 7.8
2020-Jan-22 21:11 122 2 7.8
2020-Jan-22 21:06 150 2 7.8
2020-Jan-22 21:01 055 2 7.8
2020-Jan-22 20:56 038 1 7.8
2020-Jan-22 20:51 093 2 7.8
2020-Jan-22 20:46 133 1 7.8
2020-Jan-22 20:41 122 0 7.8
2020-Jan-22 20:36 117 0 7.8
2020-Jan-22 20:31 071 1 7.8
2020-Jan-22 20:26 132 1 7.8
2020-Jan-22 20:21 053 1 7.8
2020-Jan-22 20:16 117 1 7.8
2020-Jan-22 20:11 096 2 7.8
2020-Jan-22 20:06 097 2 7.8
2020-Jan-22 20:01 053 1 7.8
2020-Jan-22 19:56 106 1 7.8
2020-Jan-22 19:51 045 1 7.8
2020-Jan-22 19:46 051 0 7.2
2020-Jan-22 19:41 094 0 7.2
2020-Jan-22 19:36 103 1 7.2
2020-Jan-22 19:31 131 0 7.2
2020-Jan-22 19:26 094 7.2
2020-Jan-22 19:21 087 0 7.2
2020-Jan-22 19:16 087 1 7.2
2020-Jan-22 19:11 079 1 7.2
2020-Jan-22 19:06 112 0 7.2
2020-Jan-22 19:01 121 0 7.2
2020-Jan-22 18:56 090 0 7.2
2020-Jan-22 18:51 089 0 7.2
2020-Jan-22 18:46 123 0 7.2
2020-Jan-22 18:41 123 1 7.8
2020-Jan-22 18:36 104 1 7.8
2020-Jan-22 18:31 304 1 7.8
2020-Jan-22 18:26 040 1 7.2
2020-Jan-22 18:21 040 1 7.2
2020-Jan-22 18:16 046 1 7.2
2020-Jan-22 18:11 050 2 7.2
2020-Jan-22 18:06 017 2 7.2
2020-Jan-22 18:01 103 2 7.2
2020-Jan-22 17:56 142 2 6.7
2020-Jan-22 17:51 090 0 6.7
2020-Jan-22 17:46 063 0 6.7
2020-Jan-22 17:41 064 0 6.7
2020-Jan-22 17:36 065 0 7.2
2020-Jan-22 17:31 065 0 7.2
2020-Jan-22 17:26 065 0 7.2
2020-Jan-22 17:21 064 1 7.2
2020-Jan-22 17:16 017 1 7.2
2020-Jan-22 17:11 113 1 7.8
2020-Jan-22 17:06 119 1 7.8
2020-Jan-22 17:01 148 1 7.8
2020-Jan-22 16:56 119 2 7.8
2020-Jan-22 16:51 107 2 7.8
2020-Jan-22 16:46 102 3 7.8
2020-Jan-22 16:41 094 2 7.8
2020-Jan-22 16:36 104 2 7.8
2020-Jan-22 16:31 113 1 7.8
2020-Jan-22 16:26 121 1 7.8
2020-Jan-22 16:21 118 2 7.8
2020-Jan-22 16:16 134 2 7.8
2020-Jan-22 16:11 125 3 7.8
2020-Jan-22 16:06 121 3 7.8
2020-Jan-22 16:01 102 3 7.8
2020-Jan-22 15:56 091 3 7.8
2020-Jan-22 15:51 147 2 7.8
2020-Jan-22 15:46 108 1 7.8
2020-Jan-22 15:41 092 2 7.8
2020-Jan-22 15:36 169 2 7.8
2020-Jan-22 15:31 090 2 7.8
2020-Jan-22 15:26 145 3 7.8
2020-Jan-22 15:21 101 3 7.8
2020-Jan-22 15:16 022 2 7.8
2020-Jan-22 15:11 098 2 7.8
2020-Jan-22 15:06 121 4 7.8
2020-Jan-22 15:01 136 4 7.8
2020-Jan-22 14:56 085 3 7.8
2020-Jan-22 14:51 136 2 7.8
2020-Jan-22 14:46 116 3 8.3
2020-Jan-22 14:41 126 3 8.3
2020-Jan-22 14:36 094 4 8.3
2020-Jan-22 14:31 142 4 8.3
2020-Jan-22 14:26 101 3 8.3
2020-Jan-22 14:21 162 3 8.3
2020-Jan-22 14:16 109 3 8.3
2020-Jan-22 14:11 126 3 7.8
2020-Jan-22 14:06 136 3 7.8
2020-Jan-22 14:01 110 4 8.3
2020-Jan-22 13:56 101 4 8.3
2020-Jan-22 13:51 126 4 8.3
2020-Jan-22 13:46 047 4 8.3
2020-Jan-22 13:41 113 4 8.3
2020-Jan-22 13:36 141 5 7.8
2020-Jan-22 13:31 106 4 7.8
2020-Jan-22 13:26 065 3 7.8
2020-Jan-22 13:21 088 4 7.8
2020-Jan-22 13:16 133 4 7.2
2020-Jan-22 13:11 078 4 7.2
2020-Jan-22 13:06 133 4 7.2
2020-Jan-22 13:01 171 3 7.2
2020-Jan-22 12:56 142 3 7.2
2020-Jan-22 12:51 140 3 7.2
2020-Jan-22 12:46 148 4 7.2
2020-Jan-22 12:41 095 4 7.2
2020-Jan-22 12:36 162 3 6.7
2020-Jan-22 12:31 092 3 6.7
2020-Jan-22 12:26 157 3 6.7
2020-Jan-22 12:21 126 3 6.7
2020-Jan-22 12:16 059 3 6.7
2020-Jan-22 12:11 165 3 6.1
2020-Jan-22 12:06 083 2 6.1
2020-Jan-22 12:01 166 1 6.1